When you browse on this site, cookies collect data to enhance your experience and personalize the content and advertising you see.
Visit our Privacy Policy to learn more. By continuing to use the site, you agree to this use of cookies and data.
EN

Hourly Weather Folwarczysko

Today, 28 September, Monday

Time Temperature Precipitation Wind Pressure Humidity
00:00 +8°C° 0 mm 2 mps 741 mmHg 82%
01:00 +9°C° 0 mm 1 mps 742 mmHg 82%
02:00 +8°C° 0 mm 1 mps 742 mmHg 83%
03:00 +7°C° 0 mm 2 mps 742 mmHg 85%
04:00 +7°C° 0 mm 2 mps 742 mmHg 87%
05:00 +7°C° 0 mm 2 mps 742 mmHg 85%
06:00 +8°C° 0 mm 2 mps 742 mmHg 84%
07:00 +8°C° 0 mm 3 mps 742 mmHg 82%
08:00 +10°C° 0 mm 3 mps 742 mmHg 75%
09:00 +12°C° 0 mm 3 mps 742 mmHg 68%
10:00 +14°C° 0 mm 4 mps 742 mmHg 61%
11:00 +15°C° 0 mm 4 mps 742 mmHg 59%
12:00 +18°C° 0 mm 4 mps 741 mmHg 57%
13:00 +19°C° 0 mm 4 mps 741 mmHg 55%
14:00 +18°C° 0 mm 4 mps 741 mmHg 60%
15:00 +18°C° 0 mm 4 mps 741 mmHg 65%
16:00 +17°C° 0 mm 4 mps 741 mmHg 70%
17:00 +15°C° 0 mm 4 mps 741 mmHg 75%
18:00 +14°C° 0 mm 3 mps 740 mmHg 79%
19:00 +13°C° 0 mm 3 mps 740 mmHg 84%
20:00 +14°C° 0 mm 2 mps 740 mmHg 84%
21:00 +14°C° 0 mm 2 mps 740 mmHg 83%
22:00 +14°C° 0 mm 2 mps 740 mmHg 83%
23:00 +13°C° 0 mm 2 mps 740 mmHg 85%

Tomorrow, 29 September, Tuesday

Time Temperature Precipitation Wind Pressure Humidity
00:00 +13°C° 0 mm 2 mps 740 mmHg 86%
01:00 +12°C° 0 mm 1 mps 740 mmHg 88%
02:00 +12°C° 0 mm 1 mps 739 mmHg 88%
03:00 +12°C° 0 mm 1 mps 739 mmHg 89%
04:00 +12°C° 0 mm 1 mps 739 mmHg 90%
05:00 +12°C° 0 mm 1 mps 739 mmHg 89%
06:00 +12°C° 0 mm 1 mps 739 mmHg 88%
07:00 +13°C° 0 mm 1 mps 739 mmHg 87%
08:00 +13°C° 1.7 mm 1 mps 739 mmHg 89%
09:00 +13°C° 1.7 mm 1 mps 739 mmHg 91%
10:00 +12°C° 1.7 mm 1 mps 739 mmHg 93%
11:00 +13°C° 1 mm 1 mps 739 mmHg 94%
12:00 +13°C° 1 mm 1 mps 739 mmHg 94%
13:00 +13°C° 1 mm 1 mps 739 mmHg 94%
14:00 +13°C° 0 mm 1 mps 739 mmHg 92%
15:00 +14°C° 0 mm 1 mps 739 mmHg 90%
16:00 +14°C° 0 mm 2 mps 739 mmHg 89%
17:00 +13°C° 0 mm 2 mps 739 mmHg 91%
18:00 +13°C° 0 mm 2 mps 739 mmHg 93%
19:00 +12°C° 0 mm 1 mps 739 mmHg 95%
20:00 +12°C° 0 mm 1 mps 739 mmHg 95%
21:00 +12°C° 0 mm 1 mps 739 mmHg 95%
22:00 +11°C° 0 mm 0 mps 739 mmHg 95%
23:00 +12°C° 0.1 mm 1 mps 739 mmHg 95%

Day after tomorrow, 30 September, Wednesday

Time Temperature Precipitation Wind Pressure Humidity
00:00 +12°C° 0.1 mm 1 mps 739 mmHg 96%
01:00 +12°C° 0.1 mm 2 mps 739 mmHg 96%
02:00 +12°C° 0.6 mm 2 mps 739 mmHg 96%
03:00 +11°C° 0.6 mm 3 mps 738 mmHg 96%
04:00 +11°C° 0.6 mm 3 mps 738 mmHg 96%
05:00 +11°C° 0.4 mm 4 mps 738 mmHg 94%
06:00 +11°C° 0.4 mm 4 mps 738 mmHg 93%
07:00 +10°C° 0.4 mm 5 mps 737 mmHg 92%
08:00 +10°C° 1.9 mm 5 mps 737 mmHg 93%
09:00 +10°C° 1.9 mm 6 mps 737 mmHg 94%
10:00 +10°C° 1.9 mm 6 mps 737 mmHg 94%
11:00 +10°C° 1.7 mm 6 mps 737 mmHg 94%
12:00 +10°C° 1.7 mm 6 mps 737 mmHg 93%
13:00 +10°C° 1.7 mm 6 mps 736 mmHg 93%
14:00 +12°C° 1.1 mm 5 mps 736 mmHg 93%
15:00 +12°C° 1.1 mm 5 mps 736 mmHg 94%
16:00 +12°C° 1.1 mm 4 mps 736 mmHg 94%
17:00 +12°C° 0.7 mm 4 mps 736 mmHg 94%
18:00 +12°C° 0.7 mm 4 mps 736 mmHg 94%
19:00 +12°C° 0.7 mm 4 mps 736 mmHg 93%
20:00 +12°C° 0.2 mm 4 mps 736 mmHg 93%
21:00 +12°C° 0.2 mm 4 mps 736 mmHg 92%
22:00 +12°C° 0.2 mm 4 mps 736 mmHg 92%
23:00 +12°C° 0.1 mm 4 mps 735 mmHg 91%

1 October, Thursday

Time Temperature Precipitation Wind Pressure Humidity
00:00 +12°C° 0.1 mm 4 mps 735 mmHg 90%
01:00 +12°C° 0.1 mm 4 mps 735 mmHg 90%
02:00 +11°C° 0.2 mm 4 mps 735 mmHg 89%
03:00 +11°C° 0.2 mm 4 mps 735 mmHg 89%
04:00 +11°C° 0.2 mm 4 mps 735 mmHg 89%
05:00 +11°C° 0 mm 3 mps 735 mmHg 89%
06:00 +11°C° 0 mm 3 mps 735 mmHg 88%
07:00 +11°C° 0 mm 3 mps 735 mmHg 88%
08:00 +11°C° 0 mm 3 mps 735 mmHg 88%
09:00 +11°C° 0 mm 3 mps 735 mmHg 87%
10:00 +12°C° 0 mm 3 mps 735 mmHg 87%
11:00 +12°C° 0 mm 3 mps 735 mmHg 85%
12:00 +13°C° 0 mm 3 mps 735 mmHg 84%
13:00 +15°C° 0 mm 2 mps 735 mmHg 83%
14:00 +14°C° 0.1 mm 2 mps 734 mmHg 84%
15:00 +14°C° 0.1 mm 2 mps 734 mmHg 86%
16:00 +14°C° 0.1 mm 2 mps 734 mmHg 87%
17:00 +14°C° 0 mm 2 mps 734 mmHg 89%
18:00 +13°C° 0 mm 2 mps 734 mmHg 91%
19:00 +13°C° 0 mm 2 mps 734 mmHg 93%
20:00 +13°C° 0 mm 1 mps 734 mmHg 93%
21:00 +12°C° 0 mm 1 mps 734 mmHg 93%
22:00 +12°C° 0 mm 1 mps 734 mmHg 94%
23:00 +12°C° 0 mm 1 mps 734 mmHg 94%

2 October, Friday

Time Temperature Precipitation Wind Pressure Humidity
00:00 +12°C° 0 mm 1 mps 734 mmHg 94%
01:00 +10°C° 0 mm 0 mps 734 mmHg 94%
02:00 +11°C° 0 mm 1 mps 734 mmHg 94%
03:00 +12°C° 0 mm 1 mps 734 mmHg 95%
04:00 +12°C° 0 mm 1 mps 734 mmHg 95%
05:00 +12°C° 0 mm 1 mps 734 mmHg 95%
06:00 +12°C° 0 mm 1 mps 734 mmHg 94%
07:00 +12°C° 0 mm 2 mps 734 mmHg 94%
08:00 +13°C° 0 mm 2 mps 734 mmHg 90%
09:00 +14°C° 0 mm 2 mps 734 mmHg 86%
10:00 +14°C° 0 mm 3 mps 735 mmHg 81%
11:00 +16°C° 0 mm 3 mps 735 mmHg 78%
12:00 +17°C° 0 mm 3 mps 735 mmHg 75%
13:00 +17°C° 0 mm 3 mps 735 mmHg 71%
14:00 +17°C° 0.1 mm 3 mps 735 mmHg 74%
15:00 +17°C° 0.1 mm 3 mps 735 mmHg 76%
16:00 +16°C° 0.1 mm 3 mps 735 mmHg 78%
17:00 +14°C° 0 mm 3 mps 735 mmHg 82%
18:00 +13°C° 0 mm 3 mps 735 mmHg 86%
19:00 +13°C° 0 mm 3 mps 735 mmHg 90%
20:00 +12°C° 0 mm 3 mps 735 mmHg 91%
21:00 +12°C° 0 mm 3 mps 735 mmHg 92%
22:00 +12°C° 0 mm 3 mps 735 mmHg 92%
23:00 +11°C° 0 mm 3 mps 735 mmHg 93%

3 October, Saturday

Time Temperature Precipitation Wind Pressure Humidity
00:00 +11°C° 0 mm 4 mps 735 mmHg 94%
01:00 +11°C° 0 mm 4 mps 734 mmHg 95%
02:00 +11°C° 0 mm 4 mps 734 mmHg 94%
03:00 +11°C° 0 mm 4 mps 734 mmHg 94%
04:00 +10°C° 0 mm 4 mps 734 mmHg 94%
05:00 +10°C° 0 mm 5 mps 734 mmHg 92%
06:00 +12°C° 0 mm 5 mps 733 mmHg 90%
07:00 +13°C° 0 mm 6 mps 733 mmHg 88%
08:00 +13°C° 0 mm 6 mps 733 mmHg 86%
09:00 +14°C° 0 mm 6 mps 733 mmHg 85%
10:00 +15°C° 0 mm 7 mps 733 mmHg 83%
11:00 +16°C° 0 mm 7 mps 733 mmHg 78%
12:00 +17°C° 0 mm 8 mps 733 mmHg 73%
13:00 +18°C° 0 mm 9 mps 732 mmHg 67%
14:00 +18°C° 0 mm 8 mps 732 mmHg 68%
15:00 +18°C° 0 mm 8 mps 732 mmHg 68%
16:00 +18°C° 0 mm 7 mps 732 mmHg 69%
17:00 +17°C° 0 mm 7 mps 732 mmHg 70%
18:00 +17°C° 0 mm 7 mps 732 mmHg 71%
19:00 +17°C° 0 mm 6 mps 732 mmHg 72%
20:00 +17°C° 0.2 mm 6 mps 732 mmHg 73%
21:00 +17°C° 0.2 mm 6 mps 732 mmHg 73%
22:00 +17°C° 0.2 mm 7 mps 732 mmHg 74%
23:00 +17°C° 0.1 mm 7 mps 732 mmHg 72%
Show more